Regional Weather Roundup
Issued by NWS Northern Indiana

Home | Current Version | Previous Version | Text Only | Print | Product List | Glossary On
Versions: 1 2 3 4 5 6 7 8 9 10 11 12 13 14 15 16 17 18 19 20 21 22 23 24 25 26 27 28 29 30 31 32 33 34 35 36 37 38 39 40 41 42 43 44 45 46 47 48 49 50
000
ASUS43 KIWX 250210
RWRIWX

KIWX WEATHER ROUNDUP
NATIONAL WEATHER SERVICE NORTHERN INDIANA
1000 PM EDT FRI MAR 24 2017

NOTE: "FAIR" INDICATES FEW OR NO CLOUDS BELOW 12,000 FEET WITH NO
SIGNIFICANT WEATHER AND/OR OBSTRUCTIONS TO VISIBILITY.

* THESE STATIONS ARE NOT UNDER NWS QUALITY CONTROL. THEY ALSO MAY NOT
  REPORT WEATHER SUCH AS PRECIPITATION OR FOG.

INZ001>027-250300-
NORTHERN INDIANA

CITY           SKY/WX    TMP DP  RH WIND       PRES   REMARKS
GARY*          CLOUDY    43  37  81 NE6       30.05R
VALPARAISO     CLOUDY    49  41  74 N9        30.04R
MICHIGAN CITY* CLOUDY    43  37  81 NW8       30.06R
LAPORTE*       CLOUDY    51  43  74 NW7       30.03R
KNOX*          CLOUDY    64  32  29 SW14G21   30.00R
SOUTH BEND     CLOUDY    65  54  67 W13       30.01R
GOSHEN         MOCLDY    64  52  64 S12       30.01R
MONTICELLO*    CLOUDY    65  54  66 S14       30.02S
LOGANSPORT*    MOCLDY    59  52  77 S9        30.04S
ROCHESTER*     CLOUDY    66  54  63 S10       30.03S
WARSAW*        CLOUDY    64  52  63 S5        30.03S
ANGOLA*        PTCLDY    64  57  77 SW13      30.02S
FORT WAYNE     CLOUDY    64  53  67 SW12      30.06R
HUNTINGTON*    CLOUDY    65  53  63 SW12      30.05S
PERU/GRISSOM   MOCLDY    64  55  71 SW12      30.03R
MARION*        MOCLDY    64  52  66 SW12      30.08R

$$
INZ028>050-250300-
CENTRAL INDIANA

CITY           SKY/WX    TMP DP  RH WIND       PRES   REMARKS
LAFAYETTE      CLOUDY    66  55  67 S9        30.03R
KOKOMO*        PTCLDY    64  53  67 S13       30.07R
MUNCIE*        PTCLDY    67  52  58 SW8       30.08R
INDIANAPOLIS   CLOUDY    67  52  58 SW10      30.08R

$$
MIZ043>046-050>051-056>058-064>065-071>073-077>080-250300-
SOUTHWEST LOWER MICHIGAN

CITY           SKY/WX    TMP DP  RH WIND       PRES   REMARKS
BATTLE CREEK   CLOUDY    64  50  60 N5        30.01R
BENTON HARBOR  LGT RAIN  45  41  86 W5        30.02R FOG
COLDWATER*     CLOUDY    66  52  59 SW12G21   30.01R
HILLSDALE*     CLOUDY    64  52  63 SW12G20   30.01S
HOLLAND        CLOUDY    55  46  71 E5        30.01R
GRAND RAPIDS   CLOUDY    55  43  63 E20       30.02R
KALAMAZOO      CLOUDY    65  45  48 NW9       30.01R
STURGIS*       CLOUDY    64  54  69 SW10      30.00S
THREE RIVERS*  CLOUDY    66  54  65 SW10G16   30.00R

$$
OHZ001>008-015>018-024>025-250300-
NORTHWEST OHIO

CITY           SKY/WX    TMP DP  RH WIND       PRES   REMARKS
WAUSEON*       CLOUDY    66  54  63 SW14G20   30.03R
DEFIANCE       CLOUDY    64  52  64 S10       30.04R
FINDLAY        MOCLDY    65  52  62 SW10      30.06R
TOLEDO EXPRESS MOCLDY    67  54  63 SW14      30.03R
TOLEDO METCALF PTCLDY    67  55  65 SW13      30.03R
LIMA           CLOUDY    65  53  65 S8        30.08R

$$
AND FOR LAKE MICHIGAN COASTAL AND OPEN LAKE BUOY OBSERVATIONS

STATION/POSITION TEMP    WIND        PRES    VSBY  WAVE
                 AIR SEA DIR/SP/G                  HT/PER
                 (F)     (DEG/KT/KT) (MB)    (MI)  (FT/S)
CALUMET HARBOR           360/ 10/ 14 1017.0R
MICHIGAN CITY            350/  4/  5   N/A
BURNS HARBOR      40     340/  6/ 11 1018.6R
SAINT JOSEPH      42     360/  3/  8 1017.9

$$
&&




USA.gov is the U.S. government's official web portal to all federal, state and local government web resources and services.